Tracking 19644 objects as of 25-Apr-2019
HD Live streaming from Space Station
objects crossing your sky now

SL-12 R/B(2)

Track SL-12 R/B(2) now!


NORAD ID: 25318
Int'l Code: 1998-025D
Perigee: 35,728.0 km
Apogee: 35,993.2 km
Inclination: 12.9 °
Period: 1,439.5 minutes
Semi major axis: 42231 km
RCS: 1.1651 m2 (large)
Launch date: April 29, 1998
Source: Commonwealth of Independent States (former USSR) (CIS)
Launch site: TYURATAM MISSILE AND SPACE COMPLEX (TTMTR)

Note: This is a ROCKET BODY
aabbcc
Your satellite tracking list
Your tracking list is empty




NASA's NSSDC Master Catalog

Two Line Element Set (TLE):
1 25318U 98025D   19115.13506348  .00000029  00000-0  00000+0 0  9990
2 25318  12.9097  23.2965 0031389  57.6039 243.8190  1.00033808 76700
Source of the keplerian elements: AFSPC